Flag for U.S.A. Weather past 2 weeks in Fort Worth, Texas, U.S.A.

45 °F

Low clouds.

Feels Like: 42 °F
Forecast: 44 / 54 °F
Wind: 6 mph from Northwest

Location: Meacham International Airport

Current Time: Nov 30, 2015 at 1:02:40 PM

Latest Report: Nov 30, 2015 at 11:53 AM

Visibility: N/A

Pressure: 30.07 "Hg

Humidity: 90%

Dew point: 42 °F

Location of Fort WorthLocation

Historic Weather in Fort Worth — Graph


Fort Worth temperature yesterday

Maximum temperature yesterday: 44 °F (at 4:53 PM)
Minimum temperature yesterday: 40 °F (at 2:53 AM)
Average temperature yesterday: 42 °F

Past Weeks' High & Low Weather Summary

High76 °F (Nov 17, 2:53 AM)96% (Nov 16, 4:00 PM)30.36 "Hg (Nov 16, 4:00 PM)
Low32 °F (Nov 22, 4:53 AM)27% (Nov 22, 3:53 PM)29.45 "Hg (Nov 17, 2:53 AM)
Average54 °F71%30.05 "Hg
* Reported Nov 15 11:53 AM — Nov 30 11:53 AM, Fort Worth, Weather by CustomWeather, © 2015

Note: Actual official high and low records may vary slightly from our data, if they occured in-between our weather recording intervals... More about our weather records


Fort Worth weather history for previous 24 hours

Time TempWeatherWind HumidityBarometerVisibility
11:53 AM
Mon, Nov 30
45 °FLow clouds.6 mph90%30.07 "HgN/A
10:53 AM44 °FLight rain. Low clouds.8 mph89%30.08 "Hg10 mi
10:02 AM44 °FLight rain. Fog.9 mph93%30.09 "Hg3 mi
9:53 AM44 °FLow clouds.8 mph93%30.09 "Hg2 mi
8:53 AM44 °FLow clouds.6 mph93%30.07 "Hg2 mi
8:03 AM44 °FFog.7 mph89%30.05 "Hg2 mi
7:53 AM43 °FFog.7 mph93%30.05 "Hg2 mi
7:00 AM43 °FFog.6 mph93%30.04 "Hg2 mi
5:53 AM43 °FFog.6 mph93%30.01 "Hg3 mi
4:53 AM43 °FFog.7 mph93%30.03 "Hg2 mi
4:02 AM43 °FMostly cloudy.5 mph93%30.02 "Hg3 mi
3:53 AM44 °FMostly cloudy.5 mph89%30.02 "Hg3 mi
2:53 AM43 °FLow clouds.3 mph93%30.03 "Hg3 mi
1:57 AM43 °FLow clouds.5 mph93%30.05 "Hg3 mi
1:04 AM43 °FFog.3 mph93%30.06 "Hg2 mi
12:53 AM43 °FFog.5 mph93%30.07 "Hg2 mi
11:53 PM
Sun, Nov 29
43 °FFog.3 mph93%30.07 "Hg2 mi
10:53 PM43 °FFog.5 mph93%30.09 "Hg2 mi
9:53 PM43 °FFog.6 mph89%30.11 "Hg6 mi
8:53 PM43 °FMostly cloudy.6 mph86%30.12 "Hg10 mi
7:53 PM43 °FMostly cloudy.7 mph86%30.13 "Hg10 mi
6:53 PM43 °FLight rain. Overcast.7 mph86%30.13 "Hg10 mi
5:53 PM42 °FLight rain. Low clouds.10 mph89%30.14 "Hg7 mi
4:53 PM44 °FLight rain. Low clouds.10 mph85%30.13 "Hg10 mi
3:53 PM43 °FLow clouds.9 mph89%30.11 "Hg10 mi
2:53 PM43 °FLow clouds.12 mph86%30.13 "Hg10 mi
1:53 PM43 °FLight rain. Mostly cloudy.6 mph89%30.12 "Hg10 mi
Weather by CustomWeather, © 2015

See weather overviewHow to use our weather pages